�������l�o���
Date,Time,MP-1(��Sv/h),MP-2(��Sv/h),MP-3(��Sv/h),MP-4(��Sv/h),MP-5(��Sv/h),MP-6(��Sv/h),MP-7(��Sv/h),MP-8(��Sv/h),����,����(m/s),���J
2014/10/13,00:00,2.122,3.892,4.255,3.768,4.022,1.450,2.020,2.267,��,3.9,��
2014/10/13,00:10,2.122,3.892,4.258,3.768,4.025,1.450,2.020,2.265,��,3.6,��
2014/10/13,00:20,2.120,3.885,4.257,3.768,4.023,1.450,2.020,2.265,��,4.0,��
2014/10/13,00:30,2.123,3.888,4.255,3.770,4.017,1.448,2.022,2.265,��,4.9,��
2014/10/13,00:40,2.122,3.892,4.257,3.775,4.023,1.450,2.023,2.267,��,4.9,��
2014/10/13,00:50,2.125,3.892,4.260,3.772,4.023,1.448,2.020,2.270,��쐼,4.6,��
2014/10/13,01:00,2.122,3.887,4.260,3.772,4.020,1.448,2.020,2.270,��,5.3,��
2014/10/13,01:10,2.125,3.890,4.258,3.777,4.018,1.447,2.020,2.267,��쐼,5.0,��
2014/10/13,01:20,2.120,3.890,4.263,3.775,4.020,1.450,2.022,2.267,��,6.4,��
2014/10/13,01:30,2.120,3.887,4.260,3.767,4.017,1.448,2.023,2.267,��,5.5,��
2014/10/13,01:40,2.118,3.890,4.262,3.768,4.017,1.448,2.023,2.267,��,5.8,��
2014/10/13,01:50,2.120,3.888,4.253,3.772,4.022,1.448,2.022,2.268,��,4.7,��
2014/10/13,02:00,2.123,3.890,4.257,3.767,4.023,1.450,2.022,2.270,��,4.8,��
2014/10/13,02:10,2.123,3.892,4.255,3.767,4.025,1.450,2.023,2.268,��,4.3,��
2014/10/13,02:20,2.118,3.890,4.253,3.768,4.025,1.450,2.022,2.267,��,4.4,��
2014/10/13,02:30,2.123,3.892,4.252,3.768,4.025,1.450,2.025,2.267,��,4.3,��
2014/10/13,02:40,2.118,3.890,4.258,3.768,4.022,1.452,2.022,2.268,��,4.5,��
2014/10/13,02:50,2.120,3.892,4.257,3.772,4.018,1.452,2.023,2.270,��,4.6,��
2014/10/13,03:00,2.125,3.887,4.257,3.772,4.020,1.450,2.022,2.268,��,4.2,��
2014/10/13,03:10,2.123,3.890,4.258,3.770,4.020,1.450,2.020,2.268,��,4.1,��
2014/10/13,03:20,2.122,3.885,4.257,3.770,4.015,1.450,2.020,2.268,��,3.7,��
2014/10/13,03:30,2.128,3.888,4.257,3.767,4.015,1.450,2.020,2.267,��,4.4,��
2014/10/13,03:40,2.125,3.887,4.257,3.768,4.013,1.452,2.022,2.267,��쐼,4.2,��
2014/10/13,03:50,2.125,3.888,4.255,3.767,4.015,1.448,2.022,2.263,��,4.6,��
2014/10/13,04:00,2.125,3.890,4.260,3.773,4.020,1.448,2.023,2.268,��쐼,4.7,��
2014/10/13,04:10,2.127,3.892,4.258,3.773,4.020,1.445,2.023,2.268,��,5.1,��
2014/10/13,04:20,2.122,3.887,4.257,3.773,4.013,1.448,2.023,2.270,��,5.2,��
2014/10/13,04:30,2.127,3.892,4.258,3.770,4.015,1.448,2.023,2.267,��,5.5,��
2014/10/13,04:40,2.123,3.887,4.252,3.768,4.020,1.452,2.023,2.267,��,6.1,��
2014/10/13,04:50,2.123,3.887,4.257,3.772,4.017,1.448,2.022,2.268,��,6.3,��
2014/10/13,05:00,2.125,3.887,4.252,3.767,4.010,1.447,2.023,2.263,��,5.8,��
2014/10/13,05:10,2.123,3.885,4.257,3.770,4.012,1.452,2.022,2.267,��,6.1,��
2014/10/13,05:20,2.123,3.885,4.258,3.775,4.012,1.452,2.018,2.265,��,6.0,��
2014/10/13,05:30,2.120,3.885,4.253,3.773,4.013,1.447,2.018,2.265,��,5.5,��
2014/10/13,05:40,2.120,3.885,4.252,3.765,4.013,1.448,2.022,2.267,��,5.2,��
2014/10/13,05:50,2.127,3.887,4.255,3.767,4.017,1.450,2.023,2.267,��,6.0,��
2014/10/13,06:00,2.122,3.887,4.260,3.768,4.017,1.450,2.025,2.265,��,5.6,��
2014/10/13,06:10,2.120,3.888,4.258,3.768,4.018,1.452,2.022,2.268,��,6.1,��
2014/10/13,06:20,2.122,3.887,4.257,3.772,4.017,1.450,2.023,2.267,��,5.5,��
2014/10/13,06:30,2.120,3.887,4.253,3.773,4.017,1.450,2.025,2.270,��,6.7,��
2014/10/13,06:40,2.122,3.888,4.255,3.775,4.017,1.448,2.023,2.268,��,6.3,��
2014/10/13,06:50,2.123,3.893,4.255,3.775,4.018,1.450,2.022,2.267,��,6.3,��
2014/10/13,07:00,2.123,3.890,4.262,3.773,4.017,1.452,2.025,2.267,��쐼,5.1,��
2014/10/13,07:10,2.125,3.892,4.260,3.773,4.018,1.450,2.027,2.268,��,5.5,��
2014/10/13,07:20,2.125,3.892,4.263,3.777,4.020,1.452,2.028,2.267,��,4.8,��
2014/10/13,07:30,2.125,3.897,4.258,3.773,4.023,1.452,2.025,2.267,��,4.5,��
2014/10/13,07:40,2.123,3.895,4.260,3.773,4.025,1.447,2.027,2.268,��,4.5,��
2014/10/13,07:50,2.125,3.893,4.260,3.775,4.025,1.442,2.023,2.268,��,4.0,��
2014/10/13,08:00,2.127,3.895,4.262,3.772,4.022,1.440,2.023,2.265,��,4.1,��
2014/10/13,08:10,2.127,3.892,4.263,3.775,4.023,1.438,2.025,2.268,��,4.1,��
2014/10/13,08:20,2.125,3.895,4.267,3.775,4.025,1.440,2.027,2.268,��,4.8,��
2014/10/13,08:30,2.127,3.897,4.267,3.778,4.025,1.442,2.025,2.263,��,5.0,��
2014/10/13,08:40,2.128,3.897,4.272,3.780,4.032,1.440,2.028,2.268,��,4.9,��
2014/10/13,08:50,2.127,3.900,4.265,3.780,4.032,1.438,2.025,2.265,��,4.6,��
2014/10/13,09:00,2.128,3.903,4.268,3.780,4.033,1.440,2.025,2.265,��,5.1,��
2014/10/13,09:10,2.130,3.900,4.268,3.777,4.035,1.440,2.025,2.267,��,4.8,��
2014/10/13,09:20,2.127,3.897,4.275,3.777,4.035,1.442,2.030,2.267,��,5.2,��
2014/10/13,09:30,2.128,3.898,4.273,3.778,4.030,1.440,2.030,2.267,��,5.0,��
2014/10/13,09:40,2.127,3.897,4.272,3.775,4.035,1.443,2.025,2.265,��,5.1,��
2014/10/13,09:50,2.125,3.897,4.270,3.778,4.037,1.440,2.030,2.267,��,4.0,��
2014/10/13,10:00,2.123,3.903,4.273,3.778,4.038,1.438,2.028,2.265,��,3.6,�L
2014/10/13,10:10,2.125,3.897,4.273,3.778,4.033,1.442,2.028,2.265,��,3.3,��
2014/10/13,10:20,2.127,3.898,4.270,3.782,4.035,1.442,2.030,2.268,��쓌,3.1,�L
2014/10/13,10:30,2.127,3.900,4.273,3.782,4.037,1.442,2.027,2.268,��,3.6,��
2014/10/13,10:40,2.128,3.898,4.275,3.783,4.037,1.445,2.028,2.270,��,3.1,��
2014/10/13,10:50,2.132,3.898,4.275,3.783,4.037,1.442,2.028,2.270,��쓌,3.6,��
2014/10/13,11:00,2.132,3.903,4.275,3.782,4.042,1.443,2.028,2.273,��쓌,3.6,��
2014/10/13,11:10,2.132,3.902,4.277,3.782,4.033,1.445,2.030,2.268,��쓌,3.9,�L
2014/10/13,11:20,2.132,3.905,4.282,3.780,4.037,1.443,2.030,2.268,��,3.4,�L
2014/10/13,11:30,2.127,3.903,4.278,3.782,4.037,1.447,2.030,2.268,��,3.5,�L
2014/10/13,11:40,2.130,3.898,4.275,3.782,4.035,1.443,2.028,2.267,��쓌,2.0,�L
2014/10/13,11:50,2.132,3.893,4.273,3.778,4.032,1.448,2.028,2.268,��쓌,2.2,�L
2014/10/13,12:00,2.130,3.895,4.272,3.778,4.032,1.448,2.033,2.270,��쓌,1.2,��
2014/10/13,12:10,2.132,3.890,4.268,3.778,4.035,1.448,2.032,2.268,�쓌,1.1,��
2014/10/13,12:20,2.130,3.897,4.272,3.777,4.035,1.453,2.032,2.267,��쓌,1.4,��
2014/10/13,12:30,2.132,3.900,4.273,3.778,4.038,1.453,2.032,2.267,���쓌,1.4,��
2014/10/13,12:40,2.128,3.898,4.273,3.783,4.040,1.455,2.032,2.268,��쓌,0.9,�L
2014/10/13,12:50,2.128,3.898,4.273,3.780,4.035,1.450,2.030,2.272,�쓌,1.0,�L
2014/10/13,13:00,2.123,3.890,4.265,3.778,4.033,1.448,2.032,2.268,-,CALM,�L
2014/10/13,13:10,2.125,3.890,4.265,3.778,4.030,1.452,2.030,2.267,�k�k��,0.6,��
2014/10/13,13:20,2.125,3.892,4.263,3.780,4.028,1.453,2.030,2.270,���쓌,0.8,��
2014/10/13,13:30,2.127,3.890,4.268,3.782,4.027,1.452,2.032,2.268,�k�k��,1.0,��
2014/10/13,13:40,2.127,3.893,4.267,3.780,4.030,1.450,2.032,2.265,�k,1.1,�L
2014/10/13,13:50,2.128,3.893,4.265,3.780,4.032,1.455,2.028,2.265,�k,2.0,��
2014/10/13,14:00,2.128,3.888,4.268,3.777,4.033,1.455,2.028,2.268,�k,2.6,�L
2014/10/13,14:10,2.123,3.890,4.267,3.777,4.028,1.458,2.032,2.267,�k,2.2,�L
2014/10/13,14:20,2.127,3.893,4.270,3.778,4.028,1.460,2.032,2.268,�k,2.6,��
2014/10/13,14:30,2.127,3.890,4.268,3.778,4.030,1.457,2.032,2.268,�k,2.7,��
2014/10/13,14:40,2.132,3.890,4.268,3.782,4.030,1.453,2.030,2.267,�k,3.2,�L
2014/10/13,14:50,2.132,3.892,4.263,3.780,4.033,1.455,2.035,2.270,�k,3.0,�L
2014/10/13,15:00,2.132,3.892,4.263,3.783,4.035,1.457,2.033,2.270,�k,3.1,�L
2014/10/13,15:10,2.132,3.888,4.265,3.783,4.032,1.457,2.030,2.267,�k,3.4,�L
2014/10/13,15:20,2.128,3.890,4.263,3.785,4.030,1.455,2.032,2.268,�k,3.6,�L
2014/10/13,15:30,2.132,3.887,4.262,3.782,4.030,1.455,2.033,2.268,�k,3.0,�L
2014/10/13,15:40,2.128,3.887,4.265,3.777,4.023,1.458,2.032,2.270,�k,2.8,�L
2014/10/13,15:50,2.125,3.883,4.262,3.775,4.018,1.457,2.030,2.267,�k�k��,3.1,�L
2014/10/13,16:00,2.128,3.882,4.257,3.777,4.017,1.452,2.027,2.268,�k,2.7,�L
2014/10/13,16:10,2.127,3.878,4.257,3.772,4.010,1.453,2.027,2.265,�k�k��,3.3,�L
2014/10/13,16:20,2.123,3.880,4.252,3.772,4.008,1.450,2.027,2.263,�k,1.7,�L
2014/10/13,16:30,2.122,3.878,4.242,3.767,3.993,1.452,2.027,2.263,�k��,2.3,�L
2014/10/13,16:40,2.125,3.873,4.242,3.767,3.992,1.450,2.023,2.265,�k�k��,3.4,�L
2014/10/13,16:50,2.123,3.872,4.240,3.765,3.990,1.452,2.025,2.263,�k�k��,3.3,�L
2014/10/13,17:00,2.125,3.868,4.240,3.763,3.990,1.452,2.025,2.262,�k�k��,3.2,�L
2014/10/13,17:10,2.127,3.870,4.240,3.763,3.990,1.450,2.025,2.263,�k�k��,3.0,�L
2014/10/13,17:20,2.120,3.870,4.238,3.763,3.985,1.452,2.023,2.263,�k�k��,2.2,�L
2014/10/13,17:30,2.123,3.870,4.238,3.767,3.987,1.452,2.025,2.263,�k��,2.0,��
2014/10/13,17:40,2.123,3.870,4.242,3.760,3.990,1.448,2.025,2.265,�k�k��,0.5,�L
2014/10/13,17:50,2.123,3.870,4.232,3.757,3.970,1.443,2.022,2.262,���k��,0.8,��
2014/10/13,18:00,2.120,3.870,4.230,3.752,3.960,1.443,2.022,2.260,-,CALM,�L
2014/10/13,18:10,2.123,3.867,4.225,3.757,3.958,1.445,2.022,2.260,�k��,0.8,�L
2014/10/13,18:20,2.122,3.865,4.225,3.758,3.960,1.447,2.022,2.257,-,CALM,�L
2014/10/13,18:30,2.125,3.868,4.225,3.755,3.962,1.443,2.018,2.257,�k�k��,1.1,�L
2014/10/13,18:40,2.123,3.860,4.217,3.748,3.953,1.445,2.017,2.258,-,CALM,�L
2014/10/13,18:50,2.120,3.850,4.208,3.745,3.942,1.442,2.017,2.258,�k�k��,1.3,�L
2014/10/13,19:00,2.107,3.815,4.175,3.727,3.913,1.435,2.010,2.252,�k��,1.2,�L
2014/10/13,19:10,2.093,3.755,4.133,3.700,3.880,1.428,2.007,2.245,�k��,0.9,�L
2014/10/13,19:20,2.085,3.725,4.110,3.677,3.862,1.425,2.003,2.242,�k��,0.8,�L
2014/10/13,19:30,2.082,3.712,4.103,3.665,3.853,1.422,1.998,2.242,���k��,3.4,�L
2014/10/13,19:40,2.078,3.703,4.103,3.663,3.858,1.425,2.002,2.240,���쓌,4.2,�L
2014/10/13,19:50,2.077,3.703,4.103,3.665,3.860,1.425,2.000,2.242,��,6.1,�L
2014/10/13,20:00,2.078,3.713,4.103,3.667,3.860,1.430,2.003,2.238,���쓌,6.1,�L
2014/10/13,20:10,2.082,3.718,4.112,3.667,3.865,1.430,2.003,2.240,�쓌,8.2,��
2014/10/13,20:20,2.082,3.725,4.115,3.667,3.872,1.430,2.005,2.238,�쓌,7.7,��
2014/10/13,20:30,2.082,3.725,4.115,3.665,3.870,1.432,2.005,2.237,�쓌,8.8,��
2014/10/13,20:40,2.080,3.725,4.117,3.667,3.868,1.432,2.002,2.240,�쓌,9.1,�L
2014/10/13,20:50,2.082,3.722,4.110,3.665,3.865,1.432,2.003,2.240,�쓌,11.5,�L
2014/10/13,21:00,2.080,3.723,4.108,3.663,3.862,1.427,2.005,2.238,�쓌,10.2,�L
2014/10/13,21:10,2.080,3.720,4.105,3.662,3.862,1.428,2.005,2.240,�쓌,8.5,�L
2014/10/13,21:20,2.078,3.710,4.100,3.657,3.862,1.430,2.005,2.237,�쓌,9.3,�L
2014/10/13,21:30,2.077,3.703,4.095,3.657,3.850,1.428,2.002,2.240,�쓌,7.8,�L
2014/10/13,21:40,2.073,3.687,4.077,3.648,3.835,1.423,1.995,2.235,�쓌,9.3,�L
2014/10/13,21:50,2.067,3.660,4.050,3.632,3.803,1.417,1.988,2.228,-,CALM,�L
2014/10/13,22:00,2.052,3.620,4.018,3.600,3.760,1.410,1.978,2.218,�쓌,5.2,�L
2014/10/13,22:10,2.040,3.580,3.990,3.577,3.733,1.400,1.972,2.212,-,CALM,�L
2014/10/13,22:20,2.025,3.550,3.968,3.558,3.702,1.393,1.963,2.208,-,CALM,�L
2014/10/13,22:30,2.013,3.537,3.948,3.545,3.678,1.390,1.958,2.203,-,CALM,�L
2014/10/13,22:40,2.010,3.527,3.932,3.532,3.657,1.387,1.953,2.197,-,CALM,�L
2014/10/13,22:50,2.008,3.523,3.928,3.525,3.642,1.385,1.950,2.197,-,CALM,�L
2014/10/13,23:00,2.002,3.512,3.918,3.518,3.617,1.377,1.947,2.193,-,CALM,�L
2014/10/13,23:10,1.992,3.482,3.900,3.497,3.568,1.368,1.938,2.187,-,CALM,�L
2014/10/13,23:20,1.980,3.453,3.880,3.483,3.535,1.363,1.928,2.177,-,CALM,�L
2014/10/13,23:30,1.978,3.458,3.880,3.488,3.530,1.363,1.928,2.173,-,CALM,�L
2014/10/13,23:40,1.992,3.477,3.885,3.493,3.530,1.365,1.925,2.177,���쓌,4.2,�L
2014/10/13,23:50,1.998,3.483,3.887,3.495,3.525,1.363,1.925,2.180,��,5.4,�L
